User: anonymous   Login
Location: El Manguito
(10.2358°N, 67.3634°W)
Time: 12:43:22
(UTC+00:00)
Language:

GEOS 3 Rocket - Orbit

View from above orbital plane
View from above orbital plane
View from above satellite
View from above satellite

Ground track
Ground track

The orbit data is extracted from the following two-line orbital elements,

1 07735U 75027B   23271.33901498  .00000195  00000-0  15679-3 0  9991
2 07735 114.9753  62.1067 0055262 258.0513 101.4369 14.24906635516972
Epoch (UTC): 28 September 2023 08:08:10
Eccentricity: 0.0055262
inclination: 114.9753°
perigee height: 769 km
apogee height: 848 km
right ascension of ascending node: 62.1067°
argument of perigee: 258.0513°
revolutions per day: 14.24906635
mean anomaly at epoch: 101.4369°
orbit number at epoch: 51697

The dashed part of the orbit path shows where the satellite is in the earth's shadow,  

DLR